Location: Monfort
(47.1967°N, 0.2115°W)
Time: 11:42:17
(UTC+00:00)

Aureole 3 - Pass Details

Date: 24 October 2020
Orbit: 382 x 1232 km, 82.5° (Epoch: 27 November)

Event Time Altitude Azimuth Distance (km) Brightness Sun altitude
Rises 17:51:56 0° 162° (SSE) 2,532 6.6 -10.0°
Reaches altitude 10° 17:54:23 10° 148° (SSE) 1,560 5.4 -10.4°
Maximum altitude 17:57:06 24° 93° (E) 908 3.8 -10.9°
Drops below altitude 10° 17:59:37 10° 37° (NE) 1,437 5.1 -11.3°
Enters shadow 17:59:54 - 34° (NE) 1,538 5.2 -11.4°
